Language: 


Des rapports , des résumés tant et plus, au choix de chacun....


Données statistiques de la station
Quotidien Rapport Février 1, 2018 Unités:  Métrique    Anglais   les deux
« Précédent Jour
Suivant Jour »
Quotidien Hebdomadaire Mensuel Annuel Actuel
  Haut: Bas: Moyen:
Température: -17.8 °C -17.3 °C -15.6 °C
Pt de rosée: -17.8 °C -17.8 °C -16.4 °C
Humidité: Humidity % 61 % 88 %
Vitesse du vent: 0 km/h 0 km/h 14 km/h
Rafales: 0 km/h - -
Vent:- - WSW
Pression: 0 hPa 33788.9 hPa -
Précipitation: 91.44 mm    
Historical Graphs
 
 
Données statistiques pour Février 1, 2018
Heure Température Point de rosée Pression Vent Vitesse du vent Refales Humidité Pluie (taux horaire)
-17.8 °C -17.8 °C 0 hPa Calm     Humidity % 0 mm
00:03 -16.6 °C -17.2 °C 33924.3 hPa West 9.8 km/h 14 km/h 92 % 0 mm
00:08 -16.6 °C -17.2 °C 33924.3 hPa West 12.7 km/h 15.6 km/h 92 % 0 mm
00:13 -16.6 °C -17.2 °C 33924.3 hPa WSW 5.1 km/h 15.6 km/h 91 % 0 mm
00:18 -16.6 °C -17.2 °C 33924.3 hPa Calm   16.9 km/h 91 % 0 mm
00:23 -16.6 °C -17.2 °C 33924.3 hPa Calm   16.9 km/h 91 % 0 mm
00:28 -16.7 °C -17.2 °C 33924.3 hPa Calm     91 % 0 mm
00:33 -16.8 °C -17.8 °C 33890.5 hPa Calm     90 % 0 mm
00:38 -16.9 °C -17.8 °C 33890.5 hPa Calm     90 % 0 mm
00:43 -17.1 °C -17.8 °C 33890.5 hPa Calm     89 % 0 mm
00:48 -17.1 °C -17.8 °C 33890.5 hPa Calm     90 % 0 mm
00:53 -17.1 °C -17.8 °C 33890.5 hPa Calm   11.1 km/h 90 % 0 mm
00:58 -17.1 °C -17.8 °C 33890.5 hPa WSW 14.5 km/h 14.5 km/h 91 % 0 mm
01:03 -17 °C -17.8 °C 33890.5 hPa WSW 14 km/h 15 km/h 92 % 0 mm
01:08 -17 °C -17.8 °C 33890.5 hPa WSW 14 km/h 15.6 km/h 92 % 0 mm
01:13 -17 °C -17.2 °C 33890.5 hPa Calm   15.6 km/h 93 % 0 mm
01:18 -17 °C -17.2 °C 33890.5 hPa WSW 8 km/h 15 km/h 93 % 0 mm
01:23 -16.9 °C -17.2 °C 33890.5 hPa Calm   8 km/h 93 % 0 mm
01:28 -17 °C -17.2 °C 33890.5 hPa Calm   8 km/h 93 % 0 mm
01:33 -17 °C -17.2 °C 33890.5 hPa Calm   2.3 km/h 93 % 0 mm
01:38 -17.1 °C -17.2 °C 33890.5 hPa Calm   9.3 km/h 93 % 0 mm
01:43 -17.1 °C -17.2 °C 33890.5 hPa Calm   9.3 km/h 93 % 0 mm
01:48 -17.1 °C -17.2 °C 33890.5 hPa Calm   9.3 km/h 93 % 0 mm
01:53 -17 °C -17.2 °C 33890.5 hPa Calm   11.6 km/h 94 % 0 mm
01:59 -16.9 °C -17.2 °C 33890.5 hPa SSW 14 km/h 14 km/h 95 % 0 mm
02:04 -16.9 °C -17.2 °C 33890.5 hPa SSW 2.9 km/h 14 km/h 95 % 0 mm
02:09 -16.9 °C -17.2 °C 33890.5 hPa Calm   14 km/h 95 % 0 mm
02:14 -16.9 °C -17.2 °C 33890.5 hPa Calm   7.6 km/h 95 % 0 mm
02:19 -16.9 °C -17.2 °C 33890.5 hPa Calm   2.3 km/h 95 % 0 mm
02:24 -17 °C -17.2 °C 33890.5 hPa Calm   5.1 km/h 94 % 0 mm
02:29 -17.1 °C -17.2 °C 33856.6 hPa West 6.4 km/h 6.9 km/h 94 % 0 mm
02:34 -17.2 °C -17.8 °C 33856.6 hPa Calm   6.9 km/h 93 % 0 mm
02:39 -17.3 °C -17.8 °C 33856.6 hPa Calm   12.2 km/h 93 % 0 mm
02:44 -17.2 °C -17.8 °C 33856.6 hPa Calm   12.2 km/h 94 % 0 mm
02:49 -17.1 °C -17.2 °C 33856.6 hPa WSW 11.6 km/h 11.6 km/h 95 % 0 mm
02:54 -17 °C -17.2 °C 33856.6 hPa Calm   11.6 km/h 96 % 0 mm
02:59 -17 °C -17.2 °C 33856.6 hPa Calm   11.6 km/h 96 % 0 mm
03:04 -17.1 °C -17.2 °C 33856.6 hPa SSW 7.6 km/h 8.9 km/h 96 % 0 mm
03:09 -17.1 °C -17.2 °C 33856.6 hPa Calm   12.2 km/h 96 % 0 mm
03:14 -16.9 °C -17.2 °C 33856.6 hPa Calm   12.2 km/h 96 % 0 mm
03:19 -16.9 °C -17.2 °C 33856.6 hPa Calm   9.8 km/h 97 % 0 mm
03:24 -16.9 °C -17.2 °C 33856.6 hPa SSW 4.2 km/h 9.8 km/h 97 % 0 mm
03:29 -16.9 °C -17.2 °C 33822.8 hPa Calm   9.8 km/h 97 % 0 mm
03:34 -16.9 °C -17.2 °C 33822.8 hPa SSW 8.9 km/h 8.9 km/h 96 % 0 mm
03:39 -16.9 °C -17.2 °C 33822.8 hPa Calm   9.3 km/h 96 % 0 mm
03:44 -17 °C -17.2 °C 33822.8 hPa SSW 9.3 km/h 12.7 km/h 96 % 0 mm
03:49 -17 °C -17.2 °C 33822.8 hPa South 7.6 km/h 12.7 km/h 96 % 0 mm
03:54 -17.1 °C -17.2 °C 33822.8 hPa South 6.4 km/h 12.7 km/h 96 % 0 mm
03:59 -17.1 °C -17.2 °C 33822.8 hPa Calm   9.8 km/h 96 % 0 mm
04:04 -17.1 °C -17.2 °C 33822.8 hPa SSW 7.6 km/h 9.8 km/h 96 % 0 mm
04:09 -17.2 °C -17.2 °C 33822.8 hPa Calm   8 km/h 96 % 0 mm
04:14 -17.1 °C -17.2 °C 33822.8 hPa SW 8.9 km/h 15 km/h 96 % 0 mm
04:19 -17 °C -17.2 °C 33822.8 hPa SSW 15.6 km/h 19.2 km/h 97 % 0 mm
04:24 -16.9 °C -17.2 °C 33822.8 hPa SSW 2.3 km/h 19.2 km/h 97 % 0 mm
04:29 -16.8 °C -16.7 °C 33822.8 hPa SSW 14 km/h 18.7 km/h 98 % 0 mm
04:34 -16.7 °C -16.7 °C 33822.8 hPa SSW 16.3 km/h 19.6 km/h 98 % 0 mm
04:39 -16.7 °C -16.7 °C 33822.8 hPa SW 14 km/h 19.6 km/h 98 % 0 mm
04:44 -16.7 °C -16.7 °C 33788.9 hPa Calm   20.3 km/h 98 % 0 mm
04:49 -16.6 °C -16.7 °C 33788.9 hPa South 15.6 km/h 26.7 km/h 98 % 0 mm
04:54 -16.6 °C -16.7 °C 33788.9 hPa South 15.6 km/h 26.7 km/h 98 % 0 mm
04:59 -16.6 °C -16.7 °C 33822.8 hPa SSW 15.6 km/h 22 km/h 98 % 0 mm
05:04 -16.6 °C -16.7 °C 33822.8 hPa SSW 19.6 km/h 22.5 km/h 97 % 0 mm
05:09 -16.6 °C -16.7 °C 33822.8 hPa South 14 km/h 22.5 km/h 97 % 0 mm
05:14 -16.6 °C -16.7 °C 33822.8 hPa SW 16.3 km/h 22.5 km/h 97 % 0 mm
05:19 -16.6 °C -16.7 °C 33822.8 hPa SW 33.2 km/h 33.2 km/h 97 % 0 mm
05:25 -16.5 °C -16.7 °C 33822.8 hPa SW 19.2 km/h 33.2 km/h 97 % 0 mm
05:30 -16.5 °C -16.7 °C 33822.8 hPa SSW 20.9 km/h 28.5 km/h 97 % 0 mm
05:35 -16.4 °C -16.7 °C 33822.8 hPa WSW 16.3 km/h 26.7 km/h 97 % 0 mm
05:40 -16.4 °C -16.7 °C 33822.8 hPa SW 15.6 km/h 33.6 km/h 97 % 0 mm
05:45 -16.3 °C -16.1 °C 33788.9 hPa WSW 16.9 km/h 33.6 km/h 97 % 0 mm
05:50 -16.3 °C -16.1 °C 33788.9 hPa SW 28.5 km/h 36 km/h 98 % 0 mm
05:55 -16.2 °C -16.1 °C 33788.9 hPa SSW 30.7 km/h 39.9 km/h 98 % 0 mm
06:00 -16.2 °C -16.1 °C 33822.8 hPa WSW 52 km/h 59.1 km/h 98 % 0 mm
06:05 -16.2 °C -16.1 °C 33822.8 hPa WSW 48.6 km/h 59.5 km/h 98 % 12.7 mm
06:10 -16.3 °C -16.1 °C 33822.8 hPa SW 34.1 km/h 59.5 km/h 98 % 20.32 mm
06:15 -16.3 °C -16.1 °C 33788.9 hPa WSW 26.7 km/h 45.1 km/h 98 % 20.32 mm
06:20 -16.3 °C -16.1 °C 33788.9 hPa WSW 27.7 km/h 34.1 km/h 98 % 20.32 mm
06:25 -16.2 °C -16.1 °C 33788.9 hPa WSW 20.9 km/h 34.1 km/h 98 % 20.32 mm
06:31 -16.3 °C -16.1 °C 33788.9 hPa WSW 20.9 km/h 39.4 km/h 98 % 33.02 mm
06:36 -16.3 °C -16.1 °C 33788.9 hPa WSW 23.8 km/h 39.4 km/h 98 % 33.02 mm
06:41 -16.2 °C -16.1 °C 33788.9 hPa WSW 31.9 km/h 39.9 km/h 98 % 33.02 mm
06:46 -16.3 °C -16.1 °C 33788.9 hPa WSW 39.4 km/h 39.9 km/h 98 % 33.02 mm
06:51 -16.3 °C -16.1 °C 33788.9 hPa WSW 27.2 km/h 41.2 km/h 98 % 33.02 mm
06:56 -16.3 °C -16.1 °C 33788.9 hPa SW 26.7 km/h 41.2 km/h 98 % 38.1 mm
07:01 -16.3 °C -16.1 °C 33788.9 hPa SW 20.9 km/h 31.4 km/h 98 % 33.02 mm
07:06 -16.3 °C -16.1 °C 33788.9 hPa WSW 20.9 km/h 33.6 km/h 98 % 20.32 mm
07:11 -16.3 °C -16.1 °C 33788.9 hPa SSW 15 km/h 33.6 km/h 98 % 12.7 mm
07:16 -16.3 °C -16.1 °C 33788.9 hPa SW 26.2 km/h 26.2 km/h 98 % 12.7 mm
07:21 -16.3 °C -16.1 °C 33788.9 hPa WSW 24.3 km/h 26.7 km/h 98 % 12.7 mm
07:26 -16.2 °C -16.1 °C 33788.9 hPa SW 16.3 km/h 26.7 km/h 98 % 12.7 mm
07:31 -16.2 °C -16.1 °C 33788.9 hPa SW 15.6 km/h 22.5 km/h 98 % 7.62 mm
07:36 -16.2 °C -16.1 °C 33788.9 hPa SSW 16.9 km/h 27.2 km/h 98 % 7.62 mm
07:41 -16.2 °C -16.1 °C 33788.9 hPa SW 15 km/h 27.2 km/h 98 % 7.62 mm
07:46 -16.2 °C -16.1 °C 33822.8 hPa WSW 16.3 km/h 20.9 km/h 98 % 7.62 mm
07:51 -16.2 °C -16.1 °C 33822.8 hPa SW 19.2 km/h 20.9 km/h 98 % 7.62 mm
07:56 -16.2 °C -16.1 °C 33822.8 hPa SSW 15.6 km/h 20.3 km/h 98 % 0 mm
08:01 -16.2 °C -16.1 °C 33822.8 hPa WSW 17.4 km/h 26.7 km/h 98 % 0 mm
08:06 -16.2 °C -16.1 °C 33822.8 hPa WSW 22.5 km/h 34.1 km/h 98 % 0 mm
08:11 -16.1 °C -16.1 °C 33822.8 hPa SW 36.5 km/h 45.1 km/h 98 % 0 mm
08:16 -16.1 °C -16.1 °C 33822.8 hPa SW 36 km/h 45.1 km/h 98 % 0 mm
08:21 -16.1 °C -16.1 °C 33822.8 hPa WSW 33.6 km/h 37 km/h 98 % 0 mm
08:27 -16.1 °C -16.1 °C 33822.8 hPa SW 29 km/h 39.4 km/h 98 % 0 mm
08:32 -16.1 °C -16.1 °C 33822.8 hPa WSW 19.6 km/h 39.4 km/h 98 % 0 mm
08:37 -16.1 °C -16.1 °C 33822.8 hPa WSW 28.5 km/h 34.8 km/h 98 % 7.62 mm
08:42 -16.1 °C -16.1 °C 33822.8 hPa WSW 26.7 km/h 34.8 km/h 98 % 7.62 mm
08:47 -16.1 °C -16.1 °C 33822.8 hPa WSW 19.2 km/h 29 km/h 98 % 7.62 mm
08:52 -16.1 °C -16.1 °C 33822.8 hPa WSW 22 km/h 34.1 km/h 98 % 7.62 mm
08:57 -16.1 °C -16.1 °C 33822.8 hPa WSW 19.6 km/h 34.1 km/h 98 % 7.62 mm
09:02 -16.1 °C -16.1 °C 33822.8 hPa WSW 25.4 km/h 33.6 km/h 98 % 7.62 mm
09:07 -16.1 °C -16.1 °C 33822.8 hPa WSW 22.5 km/h 28.5 km/h 98 % 7.62 mm
09:12 -16.1 °C -16.1 °C 33822.8 hPa WSW 22 km/h 27.7 km/h 98 % 7.62 mm
09:17 -16.1 °C -16.1 °C 33788.9 hPa WSW 19.6 km/h 35.2 km/h 98 % 7.62 mm
09:22 -16.1 °C -16.1 °C 33788.9 hPa WSW 22.5 km/h 35.2 km/h 98 % 7.62 mm
09:27 -16.1 °C -16.1 °C 33788.9 hPa WSW 20.3 km/h 28.5 km/h 98 % 7.62 mm
09:32 -16.1 °C -16.1 °C 33822.8 hPa WSW 28.5 km/h 28.5 km/h 98 % 7.62 mm
09:38 -16.1 °C -16.1 °C 33822.8 hPa WSW 19.6 km/h 28.5 km/h 98 % 0 mm
09:43 -16 °C -16.1 °C 33822.8 hPa WSW 30.7 km/h 30.7 km/h 98 % 0 mm
09:48 -15.9 °C -16.1 °C 33822.8 hPa WSW 19.2 km/h 30.7 km/h 98 % 0 mm
09:53 -15.7 °C -15.6 °C 33822.8 hPa WSW 25.4 km/h 25.4 km/h 98 % 0 mm
09:58 -15.8 °C -15.6 °C 33822.8 hPa SW 20.9 km/h 26.7 km/h 98 % 0 mm
10:03 -15.8 °C -15.6 °C 33822.8 hPa SW 16.3 km/h 26.7 km/h 98 % 7.62 mm
10:08 -15.8 °C -15.6 °C 33822.8 hPa WSW 27.2 km/h 44.1 km/h 98 % 7.62 mm
10:13 -15.7 °C -15.6 °C 33822.8 hPa West 22.5 km/h 44.1 km/h 98 % 7.62 mm
10:18 -15.7 °C -15.6 °C 33856.6 hPa WSW 25.4 km/h 33.6 km/h 98 % 7.62 mm
10:23 -15.7 °C -15.6 °C 33856.6 hPa WSW 14 km/h 34.1 km/h 98 % 7.62 mm
10:29 -15.6 °C -15.6 °C 33856.6 hPa West 26.2 km/h 33.6 km/h 98 % 12.7 mm
10:34 -15.5 °C -15.6 °C 33856.6 hPa West 15 km/h 33.6 km/h 98 % 12.7 mm
10:39 -15.4 °C -15.6 °C 33856.6 hPa West 19.2 km/h 28.5 km/h 98 % 12.7 mm
10:44 -15.4 °C -15.6 °C 33890.5 hPa West 14.5 km/h 38.3 km/h 98 % 12.7 mm
10:49 -15.3 °C -15.6 °C 33890.5 hPa SSW 7.6 km/h 38.3 km/h 98 % 12.7 mm
10:54 -15.3 °C -15.6 °C 33890.5 hPa West 15 km/h 27.7 km/h 98 % 12.7 mm
10:59 -15.3 °C -15 °C 33890.5 hPa West 15.6 km/h 27.7 km/h 98 % 12.7 mm
11:04 -15.3 °C -15 °C 33890.5 hPa WNW 12.2 km/h 27.7 km/h 98 % 7.62 mm
11:09 -15.1 °C -15 °C 33890.5 hPa West 9.3 km/h 27.2 km/h 98 % 7.62 mm
11:14 -15 °C -15 °C 33924.3 hPa West 16.3 km/h 27.2 km/h 98 % 7.62 mm
11:19 -14.9 °C -15 °C 33924.3 hPa WSW 16.9 km/h 31.4 km/h 98 % 7.62 mm
11:24 -14.8 °C -14.4 °C 33924.3 hPa WNW 15.6 km/h 31.4 km/h 98 % 7.62 mm
11:29 -14.9 °C -15 °C 33890.5 hPa NNW 5.1 km/h 31.4 km/h 98 % 0 mm
11:34 -15 °C -15 °C 33890.5 hPa WSW 4.2 km/h 16.9 km/h 98 % 0 mm
11:39 -14.9 °C -15 °C 33890.5 hPa West 9.3 km/h 22 km/h 98 % 0 mm
11:44 -14.7 °C -14.4 °C 33890.5 hPa West 3.4 km/h 22 km/h 98 % 0 mm
11:49 -14.4 °C -14.4 °C 33890.5 hPa West 25.4 km/h 28.5 km/h 98 % 0 mm
11:54 -14.3 °C -14.4 °C 33890.5 hPa WNW 22 km/h 28.5 km/h 97 % 0 mm
11:59 -14.4 °C -14.4 °C 33890.5 hPa NNW 20.9 km/h 27.2 km/h 95 % 0 mm
12:04 -14.5 °C -15 °C 33890.5 hPa West 19.6 km/h 26.2 km/h 92 % 0 mm
12:09 -14.3 °C -15 °C 33890.5 hPa WNW 15.6 km/h 39.9 km/h 88 % 0 mm
12:14 -14.1 °C -15 °C 33890.5 hPa WNW 11.1 km/h 39.9 km/h 87 % 0 mm
12:19 -13.9 °C -15 °C 33890.5 hPa West 14 km/h 26.2 km/h 87 % 0 mm
12:25 -14.2 °C -15 °C 33890.5 hPa WNW 12.7 km/h 26.7 km/h 85 % 0 mm
12:30 -14.2 °C -15 °C 33890.5 hPa WNW 2.9 km/h 25.4 km/h 85 % 0 mm
12:35 -14 °C -15 °C 33890.5 hPa WSW 14.5 km/h 22.5 km/h 86 % 0 mm
12:40 -13.9 °C -15 °C 33890.5 hPa West 24.3 km/h 26.7 km/h 84 % 0 mm
12:45 -14.1 °C -15.6 °C 33890.5 hPa West 22.5 km/h 37 km/h 81 % 0 mm
12:50 -14.2 °C -16.1 °C 33890.5 hPa NW 16.3 km/h 37 km/h 79 % 0 mm
12:55 -14.3 °C -16.1 °C 33890.5 hPa West 24.8 km/h 34.8 km/h 80 % 0 mm
13:00 -14.4 °C -16.1 °C 33890.5 hPa WNW 6.9 km/h 27.7 km/h 79 % 0 mm
13:05 -14.4 °C -16.1 °C 33890.5 hPa NNW 9.3 km/h 27.7 km/h 81 % 0 mm
13:10 -14.3 °C -15.6 °C 33890.5 hPa NW 15.6 km/h 22 km/h 83 % 0 mm
13:15 -14.1 °C -15.6 °C 33890.5 hPa NW 12.7 km/h 22.5 km/h 82 % 0 mm
13:21 -14.2 °C -16.1 °C 33890.5 hPa West 16.9 km/h 28.5 km/h 80 % 0 mm
13:26 -14.1 °C -15.6 °C 33890.5 hPa West 15.6 km/h 30.7 km/h 81 % 0 mm
13:31 -13.8 °C -15.6 °C 33856.6 hPa WSW 9.3 km/h 30.7 km/h 80 % 0 mm
13:36 -13.7 °C -15.6 °C 33856.6 hPa West 9.8 km/h 26.2 km/h 77 % 0 mm
13:41 -13.6 °C -15.6 °C 33856.6 hPa North 30.7 km/h 31.9 km/h 77 % 0 mm
13:46 -13.5 °C -16.1 °C 33890.5 hPa West 22 km/h 32.3 km/h 74 % 0 mm
13:51 -13.5 °C -16.1 °C 33890.5 hPa NW 16.3 km/h 32.3 km/h 74 % 0 mm
13:56 -13.3 °C -15.6 °C 33890.5 hPa NW 8 km/h 31.9 km/h 73 % 0 mm
14:01 -13.2 °C -15.6 °C 33890.5 hPa West 32.3 km/h 34.1 km/h 74 % 0 mm
14:06 -13.4 °C -16.1 °C 33890.5 hPa WNW 27.2 km/h 34.1 km/h 71 % 0 mm
14:11 -13.4 °C -16.1 °C 33890.5 hPa NW 15 km/h 31.9 km/h 72 % 0 mm
14:16 -13.3 °C -16.1 °C 33856.6 hPa NNW 15 km/h 27.7 km/h 71 % 0 mm
14:21 -13.4 °C -16.1 °C 33856.6 hPa SW 19.2 km/h 26.7 km/h 69 % 0 mm
14:26 -13.3 °C -16.1 °C 33856.6 hPa SSW 12.7 km/h 28.5 km/h 71 % 0 mm
14:31 -13.2 °C -15.6 °C 33890.5 hPa West 16.9 km/h 28.5 km/h 72 % 0 mm
14:36 -13.3 °C -16.1 °C 33890.5 hPa WNW 15.6 km/h 29 km/h 70 % 0 mm
14:41 -13.4 °C -16.7 °C 33890.5 hPa West 19.6 km/h 29 km/h 69 % 0 mm
14:46 -13.4 °C -16.1 °C 33890.5 hPa WSW 22 km/h 26.7 km/h 69 % 0 mm
14:51 -13.2 °C -16.1 °C 33890.5 hPa NW 15 km/h 33.6 km/h 68 % 0 mm
14:57 -13.2 °C -16.7 °C 33890.5 hPa WSW 20.9 km/h 45.9 km/h 63 % 0 mm
15:02 -13.3 °C -17.2 °C 33856.6 hPa WSW 17.4 km/h 45.9 km/h 62 % 0 mm
15:07 -13.3 °C -16.7 °C 33856.6 hPa West 20.9 km/h 33.6 km/h 63 % 0 mm
15:12 -13.3 °C -17.2 °C 33856.6 hPa WSW 9.3 km/h 33.6 km/h 62 % 0 mm
15:17 -13.1 °C -16.7 °C 33856.6 hPa West 22 km/h 27.7 km/h 64 % 0 mm
15:22 -13.1 °C -16.7 °C 33856.6 hPa WSW 31.9 km/h 39.9 km/h 62 % 0 mm
15:27 -13.2 °C -17.2 °C 33856.6 hPa WNW 22 km/h 39.9 km/h 61 % 0 mm
15:32 -13.2 °C -16.7 °C 33890.5 hPa West 26.7 km/h 34.8 km/h 63 % 0 mm
15:37 -13.3 °C -17.2 °C 33890.5 hPa NNW 9.8 km/h 34.1 km/h 61 % 0 mm
15:42 -13.3 °C -17.2 °C 33890.5 hPa West 14.5 km/h 34.1 km/h 62 % 0 mm
15:47 -13.3 °C -17.2 °C 33890.5 hPa WNW 16.9 km/h 33.6 km/h 62 % 0 mm
15:52 -13.3 °C -16.7 °C 33890.5 hPa West 15 km/h 33.6 km/h 64 % 0 mm
15:57 -13.3 °C -16.7 °C 33890.5 hPa West 10.3 km/h 24.3 km/h 63 % 0 mm
16:02 -13.2 °C -16.7 °C 33890.5 hPa West 12.7 km/h 22.5 km/h 63 % 0 mm
16:07 -13.1 °C -16.1 °C 33890.5 hPa WSW 9.3 km/h 20.9 km/h 64 % 0 mm
16:12 -13.1 °C -16.7 °C 33890.5 hPa West 33.2 km/h 37 km/h 63 % 0 mm
16:17 -13.3 °C -17.2 °C 33890.5 hPa West 16.9 km/h 37 km/h 62 % 0 mm
16:22 -13.6 °C -17.2 °C 33890.5 hPa WNW 17.9 km/h 33.6 km/h 64 % 0 mm
16:27 -14 °C -17.2 °C 33890.5 hPa WNW 9.8 km/h 27.2 km/h 66 % 0 mm
16:32 -14.2 °C -17.2 °C 33924.3 hPa WNW 12.7 km/h 27.2 km/h 70 % 0 mm
16:37 -14.4 °C -17.2 °C 33924.3 hPa WSW 15 km/h 29.5 km/h 71 % 0 mm
16:42 -14.5 °C -16.7 °C 33924.3 hPa WSW 22.5 km/h 29.5 km/h 73 % 0 mm
16:47 -14.6 °C -16.7 °C 33924.3 hPa WNW 5.1 km/h 28.5 km/h 74 % 0 mm
16:52 -14.7 °C -16.7 °C 33924.3 hPa West 20.9 km/h 25.4 km/h 74 % 0 mm
16:57 -14.7 °C -16.7 °C 33924.3 hPa West 16.3 km/h 25.4 km/h 74 % 0 mm
17:03 -14.7 °C -16.7 °C 33924.3 hPa West 8.9 km/h 25.4 km/h 74 % 0 mm
17:08 -14.8 °C -16.7 °C 33924.3 hPa West 8.9 km/h 15 km/h 75 % 0 mm
17:13 -14.8 °C -16.7 °C 33924.3 hPa WNW 9.8 km/h 14.5 km/h 75 % 0 mm
17:18 -14.8 °C -16.7 °C 33924.3 hPa West 5.1 km/h 11.1 km/h 76 % 0 mm
17:23 -14.9 °C -17.2 °C 33924.3 hPa Calm   16.3 km/h 76 % 0 mm
17:28 -14.9 °C -17.2 °C 33924.3 hPa West 8 km/h 16.3 km/h 76 % 0 mm
17:33 -15 °C -17.2 °C 33924.3 hPa Calm   14.5 km/h 76 % 0 mm
17:38 -15.1 °C -17.2 °C 33924.3 hPa Calm   14.5 km/h 77 % 0 mm
17:43 -15.2 °C -17.2 °C 33924.3 hPa West 7.6 km/h 10.3 km/h 77 % 0 mm
17:48 -15.3 °C -17.2 °C 33924.3 hPa West 3.4 km/h 9.3 km/h 77 % 0 mm
17:53 -15.4 °C -17.2 °C 33924.3 hPa West 6.4 km/h 9.8 km/h 78 % 0 mm
17:58 -15.4 °C -17.2 °C 33924.3 hPa West 6.4 km/h 9.8 km/h 78 % 0 mm
18:03 -15.5 °C -17.2 °C 33924.3 hPa WNW 10.3 km/h 12.7 km/h 79 % 0 mm
18:08 -15.6 °C -17.2 °C 33924.3 hPa West 7.6 km/h 14.5 km/h 79 % 0 mm
18:13 -15.6 °C -17.2 °C 33924.3 hPa WSW 12.2 km/h 14.5 km/h 80 % 0 mm
18:18 -15.7 °C -17.2 °C 33924.3 hPa WSW 6.9 km/h 16.3 km/h 80 % 0 mm
18:24 -15.7 °C -17.2 °C 33924.3 hPa WSW 8.9 km/h 16.3 km/h 81 % 0 mm
18:29 -15.7 °C -17.2 °C 33958.2 hPa West 15.6 km/h 19.2 km/h 81 % 0 mm
18:34 -15.6 °C -17.2 °C 33958.2 hPa West 2.9 km/h 19.2 km/h 82 % 0 mm
18:39 -15.5 °C -17.2 °C 33958.2 hPa WNW 7.6 km/h 18.7 km/h 82 % 0 mm
18:44 -15.4 °C -16.7 °C 33958.2 hPa NW 6.9 km/h 15.6 km/h 82 % 0 mm
18:49 -15.3 °C -16.7 °C 33958.2 hPa West 16.3 km/h 16.3 km/h 82 % 0 mm
18:54 -15.3 °C -16.7 °C 33958.2 hPa West 11.1 km/h 16.3 km/h 82 % 0 mm
18:59 -15.3 °C -16.7 °C 33958.2 hPa West 4.2 km/h 15.6 km/h 82 % 0 mm
19:04 -15.4 °C -16.7 °C 33958.2 hPa WSW 10.3 km/h 16.9 km/h 82 % 0 mm
19:09 -15.5 °C -17.2 °C 33958.2 hPa Calm   16.9 km/h 82 % 0 mm
19:14 -15.6 °C -17.2 °C 33958.2 hPa Calm   16.3 km/h 82 % 0 mm
19:19 -15.7 °C -17.2 °C 33958.2 hPa Calm   16.3 km/h 82 % 0 mm
19:24 -15.8 °C -17.2 °C 33958.2 hPa Calm   14 km/h 83 % 0 mm
19:29 -15.8 °C -17.2 °C 33958.2 hPa Calm   11.1 km/h 84 % 0 mm
19:34 -15.8 °C -17.2 °C 33958.2 hPa Calm   11.1 km/h 84 % 0 mm
19:39 -15.7 °C -16.7 °C 33958.2 hPa WSW 9.8 km/h 12.7 km/h 85 % 0 mm
19:44 -15.7 °C -16.7 °C 33958.2 hPa SW 10.3 km/h 12.7 km/h 85 % 0 mm
19:49 -15.6 °C -16.7 °C 33958.2 hPa WSW 12.2 km/h 16.9 km/h 85 % 0 mm
19:54 -15.5 °C -16.7 °C 33958.2 hPa SW 15.6 km/h 16.9 km/h 85 % 0 mm
19:59 -15.5 °C -16.7 °C 33958.2 hPa West 14.5 km/h 19.6 km/h 85 % 0 mm
20:04 -15.4 °C -16.7 °C 33958.2 hPa WSW 12.7 km/h 19.6 km/h 85 % 0 mm
20:09 -15.4 °C -16.7 °C 33958.2 hPa West 15 km/h 22.5 km/h 84 % 0 mm
20:14 -15.4 °C -16.7 °C 33958.2 hPa West 19.2 km/h 22.5 km/h 84 % 0 mm
20:19 -15.4 °C -16.7 °C 33958.2 hPa WSW 15.6 km/h 28.5 km/h 84 % 7.62 mm
20:24 -15.3 °C -16.7 °C 33958.2 hPa West 19.6 km/h 32.3 km/h 84 % 7.62 mm
20:29 -15.3 °C -16.7 °C 33958.2 hPa West 20.9 km/h 39.9 km/h 84 % 7.62 mm
20:34 -15.3 °C -16.7 °C 33958.2 hPa West 9.3 km/h 39.9 km/h 84 % 7.62 mm
20:39 -15.3 °C -16.7 °C 33958.2 hPa Calm   20.9 km/h 85 % 7.62 mm
20:44 -15.3 °C -16.7 °C 33958.2 hPa NW 4.2 km/h 14.5 km/h 85 % 7.62 mm
20:49 -15.3 °C -16.7 °C 33958.2 hPa West 9.3 km/h 16.3 km/h 85 % 7.62 mm
20:54 -15.3 °C -16.1 °C 33958.2 hPa WNW 19.2 km/h 20.3 km/h 85 % 7.62 mm
20:59 -15.2 °C -16.1 °C 33924.3 hPa NE 11.1 km/h 22 km/h 86 % 7.62 mm
21:04 -15.2 °C -16.1 °C 33924.3 hPa NNE 20.9 km/h 22.5 km/h 86 % 7.62 mm
21:09 -15.3 °C -16.1 °C 33924.3 hPa West 15.6 km/h 22.5 km/h 87 % 7.62 mm
21:14 -15.4 °C -16.1 °C 33958.2 hPa WNW 19.2 km/h 22 km/h 87 % 7.62 mm
21:19 -15.4 °C -16.1 °C 33958.2 hPa West 19.2 km/h 31.9 km/h 87 % 0 mm
21:24 -15.5 °C -16.7 °C 33958.2 hPa WNW 9.8 km/h 31.9 km/h 88 % 0 mm
21:29 -15.5 °C -16.1 °C 33958.2 hPa West 11.1 km/h 24.3 km/h 89 % 0 mm
21:34 -15.6 °C -16.1 °C 33958.2 hPa West 3.4 km/h 27.2 km/h 90 % 0 mm
21:39 -15.6 °C -16.1 °C 33958.2 hPa West 19.2 km/h 27.2 km/h 92 % 0 mm
21:44 -15.6 °C -16.1 °C 33958.2 hPa West 14 km/h 23 km/h 93 % 0 mm
21:49 -15.7 °C -16.1 °C 33958.2 hPa West 12.7 km/h 24.3 km/h 93 % 0 mm
21:55 -15.7 °C -16.1 °C 33958.2 hPa WSW 11.1 km/h 24.3 km/h 93 % 0 mm
22:00 -15.7 °C -16.1 °C 33958.2 hPa West 9.3 km/h 20.3 km/h 94 % 0 mm
22:05 -15.7 °C -16.1 °C 33958.2 hPa West 9.8 km/h 20.9 km/h 94 % 0 mm
22:10 -15.7 °C -16.1 °C 33958.2 hPa West 4.2 km/h 20.9 km/h 95 % 0 mm
22:15 -15.7 °C -16.1 °C 33958.2 hPa West 20.9 km/h 20.9 km/h 95 % 0 mm
22:20 -15.6 °C -15.6 °C 33958.2 hPa WSW 12.7 km/h 28.5 km/h 96 % 0 mm
22:25 -15.6 °C -15.6 °C 33958.2 hPa West 18.7 km/h 28.5 km/h 96 % 0 mm
22:30 -15.6 °C -15.6 °C 33958.2 hPa SSW 27.2 km/h 32.3 km/h 97 % 0 mm
22:35 -15.5 °C -15.6 °C 33958.2 hPa WSW 9.8 km/h 32.3 km/h 98 % 0 mm
22:40 -15.5 °C -15.6 °C 33958.2 hPa NW 15 km/h 29 km/h 98 % 0 mm
22:45 -15.5 °C -15.6 °C 33958.2 hPa West 22 km/h 24.3 km/h 98 % 0 mm
22:50 -15.5 °C -15.6 °C 33958.2 hPa WSW 9.3 km/h 22.5 km/h 98 % 0 mm
22:55 -15.4 °C -15.6 °C 33958.2 hPa NNW 26.2 km/h 26.2 km/h 98 % 0 mm
23:00 -15.4 °C -15.6 °C 33992.1 hPa West 11.1 km/h 26.2 km/h 98 % 0 mm
23:05 -15.5 °C -15.6 °C 33992.1 hPa WNW 26.2 km/h 31.4 km/h 98 % 0 mm
23:10 -15.6 °C -15.6 °C 33992.1 hPa NW 10.3 km/h 31.4 km/h 98 % 7.62 mm
23:15 -15.6 °C -15.6 °C 33958.2 hPa NW 19.6 km/h 28.5 km/h 98 % 7.62 mm
23:20 -15.7 °C -15.6 °C 33958.2 hPa West 16.9 km/h 28.5 km/h 98 % 7.62 mm
23:25 -15.7 °C -15.6 °C 33958.2 hPa WNW 10.3 km/h 25.4 km/h 98 % 7.62 mm
23:30 -15.7 °C -15.6 °C 33992.1 hPa WSW 8.9 km/h 27.7 km/h 98 % 7.62 mm
23:35 -15.7 °C -15.6 °C 33992.1 hPa WSW 11.1 km/h 27.7 km/h 98 % 7.62 mm
23:40 -15.8 °C -15.6 °C 33992.1 hPa WNW 28.5 km/h 28.5 km/h 98 % 7.62 mm
23:45 -15.8 °C -15.6 °C 33958.2 hPa NE 12.2 km/h 28.5 km/h 98 % 20.32 mm
23:50 -15.9 °C -16.1 °C 33958.2 hPa NNW 22 km/h 29 km/h 98 % 20.32 mm
23:55 -15.9 °C -16.1 °C 33958.2 hPa West 8 km/h 29 km/h 98 % 25.4 mm
Le Gheer Warneton
Courtoisie de Weather Underground - 2.25 mb

Mise a jour : 17/02/2018 20:46:12
Généré par Cumulus 1.9.4 (1099)